Taylorville, IL

1:38 AM CST on December 17, 2017 (GMT -0600)
Taylorville Municipal

Weather History for KTAZ - February, 2014

Change the Weather History Date:

Friday, February 7, 2014

  Actual Average (KSPI) Record (KSPI)
Temperature  
Mean Temperature 0 °F -  
Max Temperature 12 °F 32 °F 67 °F (2009)
Min Temperature -13 °F 14 °F -13 °F (2014)
Degree Days  
Heating Degree Days 66    
Moisture  
Dew Point -5 °F    
Average Humidity 69    
Maximum Humidity 85    
Minimum Humidity 48    
Precipitation  
Precipitation 0.00 in - - ()
Sea Level Pressure  
Sea Level Pressure 30.42 in    
Wind  
Wind Speed 4 mph (SSW)    
Max Wind Speed 8 mph    
Max Gust Speed -    
Visibility 10 miles    
Events      
Averages and records for this station are not official NWS values.
T = Trace of Precipitation, MM = Missing Value Source: NWS Daily Summary

Daily Weather History Graph

Daily Weather History Graph

Search for Another Location

Airport or City:

Trip Planner

Search our weather history database for the weather conditions in past years. The results will help you decide how hot, cold, wet, or windy it might be!

Date:

Astronomy

Feb. 07, 2014 Rise Set
Actual Time 6:58 AM CST 5:24 PM CST
Civil Twilight 6:30 AM CST 5:52 PM CST
Nautical Twilight 5:58 AM CST 6:24 PM CST
Astronomical Twilight 5:27 AM CST 6:55 PM CST
Moon 11:36 AM CST (2/7) 1:14 AM CST (2/7)
Length of Visible Light 11h 21m
Length of Day
10h 25m
First Quarter, 59% of the Moon is Illuminated
Feb 7
First Quarter
Feb 14
Full
Feb 22
Last Quarter
Mar 1
New
Mar 8
First Quarter

Hourly Weather History & Observations

Time (CST) Temp. Windchill Dew Point Humidity Pressure Visibility Wind Dir Wind Speed Gust Speed Precip Events Conditions
12:15 AM -4.0 °F -17.8 °F -9.4 °F 78% 30.46 in 10.0 mi WSW 6.9 mph - N/A   Clear
12:35 AM -4.0 °F -16.3 °F -9.4 °F 78% 30.46 in 10.0 mi WSW 5.8 mph - N/A   Clear
12:55 AM -2.2 °F -14.2 °F -7.6 °F 78% 30.46 in 10.0 mi WSW 5.8 mph - N/A   Clear
1:15 AM -5.8 °F -18.4 °F -9.4 °F 84% 30.46 in 10.0 mi WSW 5.8 mph - N/A   Clear
1:35 AM -4.0 °F -17.8 °F -9.4 °F 78% 30.46 in 10.0 mi West 6.9 mph - N/A   Clear
1:55 AM -4.0 °F -16.3 °F -9.4 °F 78% 30.46 in 10.0 mi West 5.8 mph - N/A   Clear
2:15 AM -5.8 °F -18.4 °F -9.4 °F 84% 30.46 in 10.0 mi West 5.8 mph - N/A   Clear
2:35 AM -5.8 °F - -9.4 °F 84% 30.44 in 10.0 mi Calm Calm - N/A   Clear
2:55 AM -4.0 °F - -7.6 °F 85% 30.44 in 10.0 mi Calm Calm - N/A   Clear
3:15 AM -4.0 °F - -7.6 °F 85% 30.43 in 10.0 mi Calm Calm - N/A   Clear
3:35 AM -4.0 °F - -7.6 °F 85% 30.42 in 10.0 mi Calm Calm - N/A   Clear
3:55 AM -5.8 °F - -11.2 °F 77% 30.43 in 10.0 mi Calm Calm - N/A   Clear
4:15 AM -9.4 °F -18.6 °F -14.8 °F 77% 30.44 in 10.0 mi WSW 3.5 mph - N/A   Clear
4:35 AM -13.0 °F -22.7 °F -16.6 °F 84% 30.44 in 10.0 mi WSW 3.5 mph - N/A   Clear
4:55 AM -11.2 °F - -16.6 °F 77% 30.45 in 10.0 mi Calm Calm - N/A   Clear
5:15 AM -11.2 °F -20.6 °F -16.6 °F 77% 30.46 in 10.0 mi WSW 3.5 mph - N/A   Clear
5:35 AM -13.0 °F -22.7 °F -16.6 °F 84% 30.46 in 10.0 mi WSW 3.5 mph - N/A   Clear
5:55 AM -11.2 °F -20.6 °F -14.8 °F 84% 30.46 in 10.0 mi WSW 3.5 mph - N/A   Clear
6:15 AM -13.0 °F -25.1 °F -16.6 °F 84% 30.46 in 10.0 mi SW 4.6 mph - N/A   Clear
6:35 AM -13.0 °F - -18.4 °F 77% 30.46 in 10.0 mi Calm Calm - N/A   Clear
6:55 AM -13.0 °F -22.7 °F -16.6 °F 84% 30.46 in 10.0 mi SW 3.5 mph - N/A   Clear
7:15 AM -11.2 °F -20.6 °F -16.6 °F 77% 30.46 in 10.0 mi SW 3.5 mph - N/A   Clear
7:35 AM -9.4 °F -18.6 °F -14.8 °F 77% 30.47 in 10.0 mi SW 3.5 mph - N/A   Clear
7:55 AM -9.4 °F -18.6 °F -14.8 °F 77% 30.47 in 10.0 mi SW 3.5 mph - N/A   Clear
8:15 AM -9.4 °F -18.6 °F -14.8 °F 77% 30.48 in 10.0 mi SW 3.5 mph - N/A   Clear
8:35 AM -5.8 °F - -11.2 °F 77% 30.48 in 10.0 mi Calm Calm - N/A   Clear
8:55 AM -4.0 °F -12.4 °F -7.6 °F 85% 30.48 in 10.0 mi SW 3.5 mph - N/A   Clear
9:15 AM -0.4 °F -8.3 °F -7.6 °F 72% 30.48 in 10.0 mi SW 3.5 mph - N/A   Clear
9:35 AM 3.2 °F -4.2 °F -5.8 °F 66% 30.49 in 10.0 mi SW 3.5 mph - N/A   Clear
9:55 AM 5.0 °F -2.1 °F -4.0 °F 66% 30.49 in 10.0 mi SW 3.5 mph - N/A   Clear
10:15 AM 5.0 °F -4.1 °F -4.0 °F 66% 30.50 in 10.0 mi SW 4.6 mph - N/A   Clear
10:35 AM 6.8 °F -0.1 °F -4.0 °F 61% 30.50 in 10.0 mi SSW 3.5 mph - N/A   Clear
10:55 AM 8.6 °F 0.1 °F -4.0 °F 57% 30.49 in 10.0 mi SSW 4.6 mph - N/A   Clear
11:15 AM 8.6 °F -1.3 °F -2.2 °F 62% 30.49 in 10.0 mi SSW 5.8 mph - N/A   Scattered Clouds
11:35 AM 8.6 °F -3.7 °F -4.0 °F 57% 30.48 in 10.0 mi South 8.1 mph - N/A   Clear
11:55 AM 10.4 °F -1.5 °F -4.0 °F 52% 30.48 in 10.0 mi South 8.1 mph - N/A   Clear
12:15 PM 10.4 °F -0.4 °F -4.0 °F 52% 30.47 in 10.0 mi SSW 6.9 mph - N/A   Clear
12:35 PM 10.4 °F 2.2 °F -0.4 °F 62% 30.46 in 10.0 mi SSW 4.6 mph - N/A   Clear
12:55 PM 10.4 °F 0.8 °F -2.2 °F 57% 30.44 in 10.0 mi SSW 5.8 mph - N/A   Clear
1:15 PM 10.4 °F 0.8 °F -2.2 °F 57% 30.43 in 10.0 mi South 5.8 mph - N/A   Clear
1:35 PM 10.4 °F -0.4 °F -0.4 °F 62% 30.42 in 10.0 mi South 6.9 mph - N/A   Clear
1:55 PM 10.4 °F -0.4 °F -0.4 °F 62% 30.42 in 10.0 mi South 6.9 mph - N/A   Clear
2:15 PM 12.2 °F 2.9 °F -0.4 °F 57% 30.42 in 10.0 mi SSW 5.8 mph - N/A   Clear
2:35 PM 12.2 °F 4.3 °F -0.4 °F 57% 30.41 in 10.0 mi South 4.6 mph - N/A   Clear
2:55 PM 12.2 °F 4.3 °F -0.4 °F 57% 30.40 in 10.0 mi SSE 4.6 mph - N/A   Clear
3:15 PM 12.2 °F 4.3 °F -0.4 °F 57% 30.40 in 10.0 mi South 4.6 mph - N/A   Clear
3:35 PM 12.2 °F 6.1 °F -0.4 °F 57% 30.39 in 10.0 mi South 3.5 mph - N/A   Clear
3:55 PM 12.2 °F - -2.2 °F 53% 30.38 in 10.0 mi Calm Calm - N/A   Clear
4:15 PM 12.2 °F - -0.4 °F 57% 30.38 in 10.0 mi Calm Calm - N/A   Clear
4:35 PM 12.2 °F - -4.0 °F 48% 30.38 in 10.0 mi Calm Calm - N/A   Clear
4:55 PM 8.6 °F -1.3 °F -2.2 °F 62% 30.38 in 10.0 mi South 5.8 mph - N/A   Clear
5:15 PM 8.6 °F 2.0 °F -2.2 °F 62% 30.37 in 10.0 mi South 3.5 mph - N/A   Clear
5:35 PM 10.4 °F 2.2 °F -0.4 °F 62% 30.38 in 10.0 mi South 4.6 mph - N/A   Scattered Clouds
5:55 PM 10.4 °F 4.0 °F -0.4 °F 62% 30.37 in 10.0 mi South 3.5 mph - N/A   Overcast
6:15 PM 10.4 °F - -0.4 °F 62% 30.37 in 10.0 mi Calm Calm - N/A   Overcast
6:35 PM 10.4 °F 2.2 °F -0.4 °F 62% 30.37 in 10.0 mi South 4.6 mph - N/A   Overcast
6:55 PM 10.4 °F 2.2 °F 1.4 °F 67% 30.37 in 10.0 mi South 4.6 mph - N/A   Overcast
7:15 PM 10.4 °F -0.4 °F -0.4 °F 62% 30.36 in 10.0 mi South 6.9 mph - N/A   Overcast
7:35 PM 10.4 °F 0.8 °F -0.4 °F 62% 30.36 in 10.0 mi South 5.8 mph - N/A   Overcast
7:55 PM 10.4 °F 0.8 °F 1.4 °F 67% 30.37 in 10.0 mi South 5.8 mph - N/A   Overcast
8:15 PM 10.4 °F -1.5 °F 1.4 °F 67% 30.36 in 10.0 mi South 8.1 mph - N/A   Overcast
8:35 PM 10.4 °F -0.4 °F 1.4 °F 67% 30.35 in 10.0 mi South 6.9 mph - N/A   Overcast
8:55 PM 10.4 °F 2.2 °F 1.4 °F 67% 30.36 in 10.0 mi South 4.6 mph - N/A   Overcast
9:15 PM 12.2 °F 2.9 °F 1.4 °F 62% 30.35 in 10.0 mi South 5.8 mph - N/A   Overcast
9:35 PM 12.2 °F 4.3 °F 1.4 °F 62% 30.35 in 10.0 mi South 4.6 mph - N/A   Overcast
9:55 PM 12.2 °F - 3.2 °F 67% 30.35 in 10.0 mi Calm Calm - N/A   Overcast
10:15 PM 12.2 °F 6.1 °F 3.2 °F 67% 30.35 in 10.0 mi South 3.5 mph - N/A   Overcast
10:35 PM 12.2 °F - 3.2 °F 67% 30.35 in 10.0 mi Calm Calm - N/A   Overcast
10:55 PM 12.2 °F 6.1 °F 3.2 °F 67% 30.34 in 10.0 mi South 3.5 mph - N/A   Overcast
11:15 PM 12.2 °F 4.3 °F 3.2 °F 67% 30.33 in 10.0 mi South 4.6 mph - N/A   Overcast
11:35 PM 12.2 °F - 3.2 °F 67% 30.34 in 10.0 mi Calm Calm - N/A   Overcast
11:55 PM 12.2 °F - 3.2 °F 67% 30.34 in 10.0 mi Calm Calm - N/A   Overcast